Location: Azul
(36.7830°S, 59.8500°W)
Time: 19:17:28
(UTC-03:00)

First-Move - Pass Details

Date: 28 October 2021
Orbit: 575 x 664 km, 97.6° (Epoch: 07 December)

Event Time Altitude Azimuth Distance (km) Brightness Sun altitude
Rises 04:56:13 0° 7° (N) 2,921 ? -12.3°
Reaches altitude 10° 04:58:23 10° 4° (N) 2,034 ? -12.0°
Maximum altitude 05:02:49 67° 281° (W) 714 ? -11.2°
Drops below altitude 10° 05:07:25 10° 197° (SSW) 2,105 ? -10.3°
Sets 05:09:42 0° 194° (SSW) 3,032 ? -9.9°
